Weather History for Hereford, TX

Change the Weather History Date:

Friday, April 5, 2013

  Actual Average (KAMA) Record (KAMA)
Temperature  
Mean Temperature 58 °F 53 °F  
Max Temperature 82 °F 68 °F 90 °F (2010)
Min Temperature 34 °F 38 °F 22 °F (1945)
Degree Days  
Heating Degree Days 7 12  
Month to date heating degree days 63  
Since 1 July heating degree days 3872  
Cooling Degree Days 0 0  
Month to date cooling degree days 0  
Year to date cooling degree days 2  
Growing Degree Days 8 (Base 50)    
Moisture  
Dew Point 28 °F    
Average Humidity 41    
Maximum Humidity 83    
Minimum Humidity 10    
Precipitation  
Precipitation 0.00 in 0.05 in 1.92 in (1900)
Month to date precipitation 0.23  
Year to date precipitation 2.90  
Snow  
Snow 0.00 in 0.00 in 1.50 in (1895)
Month to date snowfall 0.2  
Since 1 July snowfall 17.1  
Snow Depth -    
Sea Level Pressure  
Sea Level Pressure 30.03 in    
Wind  
Wind Speed 14 mph (SSW)    
Max Wind Speed 30 mph    
Max Gust Speed 40 mph    
Visibility 10 miles    
Events      
T = Trace of Precipitation, MM = Missing Value Source: NWS Daily Summary

Daily Weather History Graph

Daily Weather History Graph

Search for Another Location

Airport:

Trip Planner

Search our weather history database for the weather conditions in past years. The results will help you decide how hot, cold, wet, or windy it might be!

Date:

Astronomy

Apr. 05, 2013 Rise Set
Actual Time 7:30 AM CDT 8:13 PM CDT
Civil Twilight 7:04 AM CDT 8:39 PM CDT
Nautical Twilight 6:34 AM CDT 9:09 PM CDT
Astronomical Twilight 6:03 AM CDT 9:40 PM CDT
Moon 4:28 AM CDT (4/5) 3:50 PM CDT (4/5)
Length of Visible Light 13h 34m
Length of Day
12h 43m
Waning Crescent, 23% of the Moon is Illuminated
Apr 5
Waning Crescent
Apr 10
New
Apr 18
First Quarter
Apr 25
Full
May 2
Last Quarter

Hourly Weather History & Observations

Time (CDT) Temp. Windchill Dew Point Humidity Pressure Visibility Wind Dir Wind Speed Gust Speed Precip Events Conditions
12:15 AM 47.7 °F - 34.7 °F 61% 30.17 in 10.0 mi South 12.7 mph - N/A   Clear
12:35 AM 45.5 °F 40.8 °F 34.0 °F 64% 30.17 in 10.0 mi South 9.2 mph - N/A   Scattered Clouds
12:55 AM 45.0 °F 39.7 °F 34.2 °F 66% 30.17 in 10.0 mi South 10.4 mph - N/A   Mostly Cloudy
1:15 AM 44.1 °F 39.0 °F 34.2 °F 68% 30.17 in 10.0 mi South 9.2 mph - N/A   Scattered Clouds
1:35 AM 43.5 °F 38.9 °F 34.2 °F 70% 30.17 in 10.0 mi South 8.1 mph - N/A   Scattered Clouds
1:55 AM 42.6 °F 37.2 °F 34.0 °F 71% 30.17 in 10.0 mi South 9.2 mph - N/A   Mostly Cloudy
2:15 AM 41.9 °F 36.9 °F 33.8 °F 73% 30.16 in 10.0 mi South 8.1 mph - N/A   Scattered Clouds
2:35 AM 41.2 °F 34.5 °F 33.6 °F 74% 30.16 in 10.0 mi South 11.5 mph - N/A   Scattered Clouds
2:55 AM 40.8 °F 35.0 °F 33.3 °F 74% 30.17 in 10.0 mi SSW 9.2 mph - N/A   Mostly Cloudy
3:15 AM 40.5 °F 34.6 °F 33.3 °F 75% 30.16 in 10.0 mi SSW 9.2 mph - N/A   Mostly Cloudy
3:35 AM 40.3 °F 34.9 °F 33.6 °F 77% 30.16 in 10.0 mi SSW 8.1 mph - N/A   Mostly Cloudy
3:55 AM 40.1 °F 34.7 °F 32.9 °F 75% 30.16 in 10.0 mi SSW 8.1 mph - N/A   Mostly Cloudy
4:15 AM 40.1 °F 35.3 °F 32.7 °F 75% 30.16 in 10.0 mi SSW 6.9 mph - N/A   Scattered Clouds
4:35 AM 39.2 °F 33.6 °F 32.4 °F 76% 30.15 in 10.0 mi SSW 8.1 mph - N/A   Scattered Clouds
4:55 AM 38.7 °F 32.4 °F 32.0 °F 77% 30.15 in 10.0 mi SSW 9.2 mph - N/A   Mostly Cloudy
5:15 AM 39.2 °F 33.0 °F 32.5 °F 77% 30.16 in 10.0 mi SW 9.2 mph - N/A   Scattered Clouds
5:35 AM 39.7 °F 34.9 °F 32.4 °F 75% 30.15 in 10.0 mi SSW 6.9 mph - N/A   Scattered Clouds
5:55 AM 38.1 °F 32.9 °F 31.8 °F 78% 30.15 in 10.0 mi SW 6.9 mph - N/A   Scattered Clouds
6:15 AM 35.6 °F 29.9 °F 30.4 °F 81% 30.14 in 10.0 mi SSW 6.9 mph - N/A   Clear
6:35 AM 35.6 °F 29.9 °F 30.2 °F 81% 30.14 in 10.0 mi SSW 6.9 mph - N/A   Clear
6:55 AM 35.1 °F 29.3 °F 30.2 °F 82% 30.14 in 10.0 mi SSW 6.9 mph - N/A   Scattered Clouds
7:15 AM 34.9 °F 29.0 °F 30.2 °F 83% 30.14 in 10.0 mi SSW 6.9 mph - N/A   Mostly Cloudy
7:35 AM 35.8 °F 30.1 °F 30.9 °F 82% 30.14 in 10.0 mi SSW 6.9 mph - N/A   Mostly Cloudy
7:55 AM 36.9 °F 31.4 °F 32.0 °F 83% 30.14 in 10.0 mi SW 6.9 mph - N/A   Mostly Cloudy
8:15 AM 37.9 °F 34.4 °F 33.1 °F 83% 30.14 in 10.0 mi South 4.6 mph - N/A   Mostly Cloudy
8:35 AM 42.1 °F 37.7 °F 34.5 °F 75% 30.15 in 10.0 mi SW 6.9 mph - N/A   Mostly Cloudy
8:55 AM 46.4 °F 41.5 °F 35.8 °F 67% 30.14 in 10.0 mi SSW 10.4 mph 16.1 mph N/A   Mostly Cloudy
9:15 AM 48.7 °F - 36.0 °F 61% 30.15 in 10.0 mi SSW 10.4 mph - N/A   Mostly Cloudy
9:35 AM 53.1 °F - 35.6 °F 52% 30.14 in 10.0 mi SSW 15.0 mph 18.4 mph N/A   Mostly Cloudy
9:55 AM 55.0 °F - 35.1 °F 47% 30.13 in 10.0 mi SSW 15.0 mph 20.7 mph N/A   Mostly Cloudy
10:15 AM 57.2 °F - 34.2 °F 42% 30.13 in 10.0 mi SSW 18.4 mph 23.0 mph N/A   Mostly Cloudy
10:35 AM 59.9 °F - 34.2 °F 38% 30.12 in 10.0 mi SSW 15.0 mph 23.0 mph N/A   Mostly Cloudy
10:55 AM 62.1 °F - 32.5 °F 33% 30.12 in 10.0 mi SSW 18.4 mph 24.2 mph N/A   Mostly Cloudy
11:15 AM 65.7 °F - 32.0 °F 29% 30.11 in 10.0 mi SSW 19.6 mph 26.5 mph N/A   Mostly Cloudy
11:35 AM 67.8 °F - 31.5 °F 26% 30.10 in 10.0 mi SSW 24.2 mph 28.8 mph N/A   Mostly Cloudy
11:55 AM 70.5 °F - 32.4 °F 24% 30.09 in 10.0 mi SSW 21.9 mph 29.9 mph N/A   Mostly Cloudy
12:15 PM 71.2 °F - 30.0 °F 22% 30.09 in 10.0 mi SSW 24.2 mph 33.4 mph N/A   Mostly Cloudy
12:35 PM 72.3 °F - 29.1 °F 20% 30.08 in 10.0 mi SSW 24.2 mph 35.7 mph N/A   Mostly Cloudy
12:55 PM 71.1 °F - 28.4 °F 20% 30.07 in 10.0 mi SSW 25.3 mph 35.7 mph N/A   Mostly Cloudy
1:15 PM 73.9 °F - 27.1 °F 18% 30.05 in 10.0 mi SSW 24.2 mph 35.7 mph N/A   Scattered Clouds
1:35 PM 75.7 °F - 25.9 °F 16% 30.04 in 10.0 mi SSW 25.3 mph 32.2 mph N/A   Scattered Clouds
1:55 PM 77.2 °F - 25.0 °F 14% 30.02 in 10.0 mi SSW 24.2 mph 35.7 mph N/A   Mostly Cloudy
2:15 PM 78.1 °F - 24.8 °F 14% 30.01 in 10.0 mi SSW 26.5 mph 36.8 mph N/A   Overcast
2:35 PM 79.0 °F - 23.5 °F 13% 30.00 in 10.0 mi SSW 26.5 mph 40.3 mph N/A   Overcast
2:55 PM 77.9 °F - 23.5 °F 13% 29.98 in 10.0 mi SSW 29.9 mph 34.5 mph N/A   Mostly Cloudy
3:15 PM 79.0 °F - 23.7 °F 13% 29.97 in 10.0 mi SSW 27.6 mph 34.5 mph N/A   Overcast
3:35 PM 80.6 °F - 23.2 °F 12% 29.95 in 10.0 mi SSW 23.0 mph 38.0 mph N/A   Overcast
3:55 PM 81.7 °F - 23.4 °F 12% 29.93 in 10.0 mi SSW 21.9 mph 32.2 mph N/A   Overcast
4:15 PM 82.0 °F - 20.3 °F 10% 29.92 in 10.0 mi SSW 24.2 mph 39.1 mph N/A   Overcast
4:35 PM 81.9 °F - 21.0 °F 11% 29.90 in 10.0 mi SSW 27.6 mph 34.5 mph N/A   Mostly Cloudy
4:55 PM 81.3 °F - 21.7 °F 11% 29.89 in 10.0 mi SSW 23.0 mph 36.8 mph N/A   Mostly Cloudy
5:15 PM 80.6 °F - 21.4 °F 11% 29.88 in 10.0 mi SW 27.6 mph 35.7 mph N/A   Overcast
5:35 PM 80.2 °F - 21.2 °F 11% 29.88 in 10.0 mi SSW 28.8 mph 38.0 mph N/A   Overcast
5:55 PM 79.7 °F - 21.0 °F 11% 29.88 in 10.0 mi SSW 25.3 mph 33.4 mph N/A   Overcast
6:15 PM 79.3 °F - 20.8 °F 11% 29.88 in 10.0 mi SW 21.9 mph 28.8 mph N/A   Overcast
6:35 PM 78.8 °F - 19.2 °F 11% 29.88 in 10.0 mi SW 19.6 mph 26.5 mph N/A   Mostly Cloudy
6:55 PM 78.6 °F - 20.1 °F 11% 29.88 in 10.0 mi SW 18.4 mph - N/A   Overcast
7:15 PM 77.4 °F - 21.0 °F 12% 29.88 in 10.0 mi SW 13.8 mph 20.7 mph N/A   Overcast
7:35 PM 76.3 °F - 21.9 °F 13% 29.87 in 10.0 mi SW 16.1 mph - N/A   Overcast
7:55 PM 74.8 °F - 21.7 °F 14% 29.87 in 10.0 mi SSW 11.5 mph - N/A   Overcast
8:15 PM 72.5 °F - 22.1 °F 15% 29.86 in 10.0 mi SSW 13.8 mph - N/A   Mostly Cloudy
8:35 PM 70.3 °F - 21.2 °F 16% 29.85 in 10.0 mi SSW 12.7 mph 18.4 mph N/A   Mostly Cloudy
8:55 PM 68.2 °F - 23.0 °F 18% 29.86 in 10.0 mi SSW 11.5 mph - N/A   Mostly Cloudy
9:15 PM 68.0 °F - 23.9 °F 19% 29.86 in 10.0 mi SSW 13.8 mph - N/A   Mostly Cloudy
9:35 PM 68.0 °F - 23.7 °F 19% 29.86 in 10.0 mi SSW 15.0 mph 20.7 mph N/A   Scattered Clouds
9:55 PM 67.5 °F - 23.5 °F 19% 29.86 in 10.0 mi South 17.3 mph 21.9 mph N/A   Clear
10:15 PM 66.2 °F - 23.0 °F 19% 29.87 in 10.0 mi South 17.3 mph - N/A   Clear
10:35 PM 66.2 °F - 23.4 °F 20% 29.88 in 10.0 mi South 21.9 mph 28.8 mph N/A   Scattered Clouds
10:55 PM 63.9 °F - 23.7 °F 22% 29.87 in 10.0 mi SSW 21.9 mph 25.3 mph N/A   Mostly Cloudy
11:15 PM 62.6 °F - 23.7 °F 23% 29.86 in 10.0 mi SSW 19.6 mph - N/A   Mostly Cloudy
11:35 PM 60.4 °F - 23.7 °F 24% 29.86 in 10.0 mi SSW 18.4 mph 25.3 mph N/A   Mostly Cloudy
11:55 PM 58.6 °F - 23.9 °F 26% 29.86 in 10.0 mi SSW 16.1 mph 19.6 mph N/A   Mostly Cloudy